Time,TemperatureF,DewpointF,PressureIn,WindDirection,WindDirectionDegrees,WindSpeedMPH,WindSpeedGustMPH,Humidity,HourlyPrecipIn,Conditions,Clouds,dailyrainin,SoftwareType,DateUTC
2015-04-27 00:03:00,47.8,38.8,29.98,North,355,1.0,3.0,71,0.00,,,0.00,Wunderground v.1.13,2015-04-27 05:03:00,
2015-04-27 00:08:00,47.8,38.5,29.98,N/A,-737280,0.0,0.0,70,0.00,,,0.00,Wunderground v.1.13,2015-04-27 05:08:00,
2015-04-27 00:18:00,47.5,38.6,29.98,NE,45,1.0,4.0,71,0.00,,,0.00,Wunderground v.1.13,2015-04-27 05:18:00,
2015-04-27 00:28:00,46.8,38.2,29.98,NNE,20,0.0,0.0,72,0.00,,,0.00,Wunderground v.1.13,2015-04-27 05:28:00,
2015-04-27 00:38:00,46.6,38.1,29.98,N/A,-737280,0.0,0.0,72,0.00,,,0.00,Wunderground v.1.13,2015-04-27 05:38:00,
2015-04-27 00:48:00,46.5,38.0,29.98,East,87,1.0,1.0,72,0.00,,,0.00,Wunderground v.1.13,2015-04-27 05:48:00,
2015-04-27 00:53:00,46.3,37.8,29.98,N/A,-737280,0.0,0.0,72,0.00,,,0.00,Wunderground v.1.13,2015-04-27 05:53:00,
2015-04-27 01:03:00,46.1,37.9,29.99,ENE,69,0.0,3.0,73,0.00,,,0.00,Wunderground v.1.13,2015-04-27 06:03:00,
2015-04-27 01:08:00,46.0,37.5,29.99,NNE,23,0.0,2.0,72,0.00,,,0.00,Wunderground v.1.13,2015-04-27 06:08:00,
2015-04-27 01:18:00,45.5,37.3,30.00,NE,36,0.0,0.0,73,0.00,,,0.00,Wunderground v.1.13,2015-04-27 06:18:00,
2015-04-27 01:23:00,45.2,37.4,29.99,N/A,-737280,0.0,0.0,74,0.00,,,0.00,Wunderground v.1.13,2015-04-27 06:23:00,
2015-04-27 01:28:00,45.0,37.2,29.99,N/A,-737280,0.0,0.0,74,0.00,,,0.00,Wunderground v.1.13,2015-04-27 06:28:00,
2015-04-27 01:38:00,44.1,37.0,29.99,N/A,-737280,0.0,0.0,76,0.00,,,0.00,Wunderground v.1.13,2015-04-27 06:38:00,
2015-04-27 01:48:00,43.2,36.8,29.99,NNE,28,0.0,0.0,78,0.00,,,0.00,Wunderground v.1.13,2015-04-27 06:48:00,
2015-04-27 01:58:00,42.9,36.5,29.99,N/A,-737280,0.0,0.0,78,0.00,,,0.00,Wunderground v.1.13,2015-04-27 06:58:00,
2015-04-27 02:08:00,42.3,36.6,29.99,N/A,-737280,0.0,0.0,80,0.00,,,0.00,Wunderground v.1.13,2015-04-27 07:08:00,
2015-04-27 02:13:00,42.1,36.1,29.98,NE,51,0.0,0.0,79,0.00,,,0.00,Wunderground v.1.13,2015-04-27 07:13:00,
2015-04-27 02:23:00,42.6,36.2,29.98,North,355,0.0,0.0,78,0.00,,,0.00,Wunderground v.1.13,2015-04-27 07:23:00,
2015-04-27 02:28:00,42.7,36.0,29.99,NNW,335,0.0,0.0,77,0.00,,,0.00,Wunderground v.1.13,2015-04-27 07:28:00,
2015-04-27 02:33:00,42.7,36.3,29.99,N/A,-737280,0.0,0.0,78,0.00,,,0.00,Wunderground v.1.13,2015-04-27 07:33:00,
2015-04-27 02:43:00,43.0,36.0,29.99,North,355,0.0,0.0,76,0.00,,,0.00,Wunderground v.1.13,2015-04-27 07:43:00,
2015-04-27 02:48:00,43.1,36.0,29.99,N/A,-737280,0.0,0.0,76,0.00,,,0.00,Wunderground v.1.13,2015-04-27 07:48:00,
2015-04-27 02:58:00,43.4,35.7,30.00,NE,54,0.0,0.0,74,0.00,,,0.00,Wunderground v.1.13,2015-04-27 07:58:00,
2015-04-27 03:08:00,43.5,35.8,30.00,N/A,-737280,0.0,0.0,74,0.00,,,0.00,Wunderground v.1.13,2015-04-27 08:08:00,
2015-04-27 03:18:00,43.1,35.4,29.99,NE,36,0.0,0.0,74,0.00,,,0.00,Wunderground v.1.13,2015-04-27 08:18:00,
2015-04-27 03:28:00,43.1,35.0,29.99,NE,53,0.0,0.0,73,0.00,,,0.00,Wunderground v.1.13,2015-04-27 08:28:00,
2015-04-27 03:33:00,42.9,34.8,29.99,N/A,-737280,0.0,0.0,73,0.00,,,0.00,Wunderground v.1.13,2015-04-27 08:33:00,
2015-04-27 03:43:00,43.0,34.9,29.98,NW,315,0.0,0.0,73,0.00,,,0.00,Wunderground v.1.13,2015-04-27 08:43:00,
2015-04-27 03:53:00,43.3,34.5,29.98,N/A,-737280,0.0,0.0,71,0.00,,,0.00,Wunderground v.1.13,2015-04-27 08:53:00,
2015-04-27 04:03:00,43.7,34.2,29.98,ENE,59,0.0,0.0,69,0.00,,,0.00,Wunderground v.1.13,2015-04-27 09:03:00,
2015-04-27 04:08:00,44.0,33.7,29.98,NE,45,1.0,2.0,67,0.00,,,0.00,Wunderground v.1.13,2015-04-27 09:08:00,
2015-04-27 04:13:00,44.4,34.1,29.98,North,5,1.0,2.0,67,0.00,,,0.00,Wunderground v.1.13,2015-04-27 09:13:00,
2015-04-27 04:23:00,44.5,33.8,29.98,East,95,0.0,2.0,66,0.00,,,0.00,Wunderground v.1.13,2015-04-27 09:23:00,
2015-04-27 04:28:00,44.6,33.2,29.98,North,5,0.0,4.0,64,0.00,,,0.00,Wunderground v.1.13,2015-04-27 09:28:00,
2015-04-27 04:33:00,44.7,33.3,29.98,NNW,338,0.0,1.0,64,0.00,,,0.00,Wunderground v.1.13,2015-04-27 09:33:00,
2015-04-27 04:43:00,45.0,32.8,29.98,North,5,1.0,1.0,62,0.00,,,0.00,Wunderground v.1.13,2015-04-27 09:43:00,
2015-04-27 04:53:00,45.0,32.8,29.98,NE,45,0.0,1.0,62,0.00,,,0.00,Wunderground v.1.13,2015-04-27 09:53:00,
2015-04-27 05:03:00,44.9,32.3,29.98,NNW,335,0.0,2.0,61,0.00,,,0.00,Wunderground v.1.13,2015-04-27 10:03:00,
2015-04-27 05:08:00,45.0,31.9,29.99,NNW,338,2.0,6.0,60,0.00,,,0.00,Wunderground v.1.13,2015-04-27 10:08:00,
2015-04-27 05:13:00,44.9,32.7,29.99,NNW,342,1.0,1.0,62,0.00,,,0.00,Wunderground v.1.13,2015-04-27 10:13:00,
2015-04-27 05:23:00,44.6,32.4,29.99,NNE,23,1.0,1.0,62,0.00,,,0.00,Wunderground v.1.13,2015-04-27 10:23:00,
2015-04-27 05:33:00,44.4,32.6,29.99,N/A,-737280,0.0,0.0,63,0.00,,,0.00,Wunderground v.1.13,2015-04-27 10:33:00,
2015-04-27 05:43:00,44.2,32.8,30.00,NNE,31,0.0,0.0,64,0.00,,,0.00,Wunderground v.1.13,2015-04-27 10:43:00,
2015-04-27 05:53:00,44.0,32.6,30.00,N/A,-737280,0.0,0.0,64,0.00,,,0.00,Wunderground v.1.13,2015-04-27 10:53:00,
2015-04-27 06:03:00,44.0,32.6,30.00,NNE,23,0.0,0.0,64,0.00,,,0.00,Wunderground v.1.13,2015-04-27 11:03:00,
2015-04-27 06:08:00,43.9,32.1,30.00,North,0,2.0,6.0,63,0.00,,,0.00,Wunderground v.1.13,2015-04-27 11:08:00,
2015-04-27 06:13:00,44.0,32.2,30.00,NNW,348,1.0,1.0,63,0.00,,,0.00,Wunderground v.1.13,2015-04-27 11:13:00,
2015-04-27 06:23:00,44.0,32.2,30.00,NE,39,0.0,0.0,63,0.00,,,0.00,Wunderground v.1.13,2015-04-27 11:23:00,
2015-04-27 06:28:00,44.0,31.8,30.01,NNE,19,1.0,1.0,62,0.00,,,0.00,Wunderground v.1.13,2015-04-27 11:28:00,
2015-04-27 06:33:00,44.1,31.5,30.01,NE,45,2.0,7.0,61,0.00,,,0.00,Wunderground v.1.13,2015-04-27 11:33:00,
2015-04-27 06:43:00,44.2,31.6,30.01,NNE,25,0.0,0.0,61,0.00,,,0.00,Wunderground v.1.13,2015-04-27 11:43:00,
2015-04-27 06:53:00,44.2,31.2,30.01,N/A,-737280,0.0,0.0,60,0.00,,,0.00,Wunderground v.1.13,2015-04-27 11:53:00,
2015-04-27 07:03:00,44.6,31.1,30.02,NNW,332,0.0,0.0,59,0.00,,,0.00,Wunderground v.1.13,2015-04-27 12:03:00,
2015-04-27 07:08:00,44.7,31.7,30.03,N/A,-737280,0.0,0.0,60,0.00,,,0.00,Wunderground v.1.13,2015-04-27 12:08:00,
2015-04-27 07:18:00,44.9,31.4,30.03,West,270,0.0,1.0,59,0.00,,,0.00,Wunderground v.1.13,2015-04-27 12:18:00,
2015-04-27 07:28:00,45.3,31.8,30.03,NE,37,0.0,3.0,59,0.00,,,0.00,Wunderground v.1.13,2015-04-27 12:28:00,
2015-04-27 07:43:00,45.8,32.3,30.04,ENE,61,1.0,1.0,59,0.00,,,0.00,Wunderground v.1.13,2015-04-27 12:43:00,
2015-04-27 07:53:00,46.0,32.0,30.04,ENE,68,0.0,2.0,58,0.00,,,0.00,Wunderground v.1.13,2015-04-27 12:53:00,
2015-04-27 08:03:00,46.3,31.9,30.04,NNE,32,0.0,0.0,57,0.00,,,0.00,Wunderground v.1.13,2015-04-27 13:03:00,
2015-04-27 08:08:00,46.5,32.1,30.05,N/A,-737280,0.0,0.0,57,0.00,,,0.00,Wunderground v.1.13,2015-04-27 13:08:00,
2015-04-27 08:13:00,46.7,31.8,30.06,ENE,67,0.0,0.0,56,0.00,,,0.00,Wunderground v.1.13,2015-04-27 13:13:00,
2015-04-27 08:23:00,47.4,32.9,30.06,ENE,76,0.0,0.0,57,0.00,,,0.00,Wunderground v.1.13,2015-04-27 13:23:00,
2015-04-27 08:28:00,47.7,32.3,30.07,NE,37,0.0,0.0,55,0.00,,,0.00,Wunderground v.1.13,2015-04-27 13:28:00,
2015-04-27 08:38:00,47.8,32.4,30.08,NE,45,2.0,3.0,55,0.00,,,0.00,Wunderground v.1.13,2015-04-27 13:38:00,
2015-04-27 08:48:00,48.0,32.1,30.09,NNE,17,1.0,2.0,54,0.00,,,0.00,Wunderground v.1.13,2015-04-27 13:48:00,
2015-04-27 08:53:00,48.1,32.7,30.10,NE,45,1.0,2.0,55,0.00,,,0.00,Wunderground v.1.13,2015-04-27 13:53:00,
2015-04-27 09:03:00,48.4,32.5,30.11,NNE,29,1.0,1.0,54,0.00,,,0.00,Wunderground v.1.13,2015-04-27 14:03:00,
2015-04-27 09:08:00,48.5,32.6,30.11,N/A,-737280,0.0,0.0,54,0.00,,,0.00,Wunderground v.1.13,2015-04-27 14:08:00,
2015-04-27 09:18:00,49.1,33.2,30.11,N/A,-737280,0.0,0.0,54,0.00,,,0.00,Wunderground v.1.13,2015-04-27 14:18:00,
2015-04-27 09:28:00,50.1,34.1,30.12,NNE,32,0.0,0.0,54,0.00,,,0.00,Wunderground v.1.13,2015-04-27 14:28:00,
2015-04-27 09:33:00,50.3,34.7,30.12,N/A,-737280,0.0,0.0,55,0.00,,,0.00,Wunderground v.1.13,2015-04-27 14:33:00,
2015-04-27 09:43:00,50.9,33.4,30.11,NNW,346,2.0,2.0,51,0.00,,,0.00,Wunderground v.1.13,2015-04-27 14:43:00,
2015-04-27 09:53:00,51.1,34.1,30.11,NNW,344,4.0,4.0,52,0.00,,,0.00,Wunderground v.1.13,2015-04-27 14:53:00,
2015-04-27 09:58:00,51.4,33.4,30.11,NE,45,2.0,4.0,50,0.00,,,0.00,Wunderground v.1.13,2015-04-27 14:58:00,
2015-04-27 10:08:00,52.1,34.5,30.11,ENE,68,5.0,9.0,51,0.00,,,0.00,Wunderground v.1.13,2015-04-27 15:08:00,
2015-04-27 10:18:00,52.5,35.4,30.10,N/A,-737280,0.0,0.0,52,0.00,,,0.00,Wunderground v.1.13,2015-04-27 15:18:00,
2015-04-27 10:28:00,53.3,35.6,30.10,ENE,57,1.0,1.0,51,0.00,,,0.00,Wunderground v.1.13,2015-04-27 15:28:00,
2015-04-27 10:38:00,54.1,35.9,30.10,NNW,338,2.0,5.0,50,0.00,,,0.00,Wunderground v.1.13,2015-04-27 15:38:00,
2015-04-27 10:48:00,55.0,36.7,30.10,NW,317,2.0,3.0,50,0.00,,,0.00,Wunderground v.1.13,2015-04-27 15:48:00,
2015-04-27 10:58:00,55.0,36.7,30.10,NE,45,5.0,9.0,50,0.00,,,0.00,Wunderground v.1.13,2015-04-27 15:58:00,
2015-04-27 11:03:00,54.6,37.3,30.09,ENE,78,4.0,4.0,52,0.00,,,0.00,Wunderground v.1.13,2015-04-27 16:03:00,
2015-04-27 11:08:00,54.6,36.8,30.09,SSW,203,2.0,6.0,51,0.00,,,0.00,Wunderground v.1.13,2015-04-27 16:08:00,
2015-04-27 11:18:00,54.9,37.1,30.09,NNW,333,4.0,4.0,51,0.00,,,0.00,Wunderground v.1.13,2015-04-27 16:18:00,
2015-04-27 11:28:00,56.0,37.6,30.08,NNW,338,2.0,5.0,50,0.00,,,0.00,Wunderground v.1.13,2015-04-27 16:28:00,
2015-04-27 11:38:00,57.3,37.2,30.07,NE,35,2.0,2.0,47,0.00,,,0.00,Wunderground v.1.13,2015-04-27 16:38:00,
2015-04-27 11:48:00,57.7,38.1,30.07,NW,314,3.0,3.0,48,0.00,,,0.00,Wunderground v.1.13,2015-04-27 16:48:00,
2015-04-27 11:53:00,57.8,36.6,30.08,NE,45,2.0,6.0,45,0.00,,,0.00,Wunderground v.1.13,2015-04-27 16:53:00,
2015-04-27 12:03:00,59.0,37.7,30.08,SW,232,3.0,3.0,45,0.00,,,0.00,Wunderground v.1.13,2015-04-27 17:03:00,
2015-04-27 12:08:00,59.0,36.5,30.08,North,0,5.0,12.0,43,0.00,,,0.00,Wunderground v.1.13,2015-04-27 17:08:00,
2015-04-27 12:13:00,59.0,35.9,30.07,West,276,4.0,4.0,42,0.00,,,0.00,Wunderground v.1.13,2015-04-27 17:13:00,
2015-04-27 12:23:00,59.3,36.2,30.06,NE,44,4.0,4.0,42,0.00,,,0.00,Wunderground v.1.13,2015-04-27 17:23:00,
2015-04-27 12:28:00,59.5,37.6,30.07,NE,45,5.0,10.0,44,0.00,,,0.00,Wunderground v.1.13,2015-04-27 17:28:00,
2015-04-27 12:38:00,60.4,36.6,30.07,NNW,340,4.0,7.0,41,0.00,,,0.00,Wunderground v.1.13,2015-04-27 17:38:00,
2015-04-27 12:43:00,60.2,35.8,30.07,NE,45,7.0,13.0,40,0.00,,,0.00,Wunderground v.1.13,2015-04-27 17:43:00,
2015-04-27 12:53:00,59.5,37.0,30.07,NW,315,6.0,6.0,43,0.00,,,0.00,Wunderground v.1.13,2015-04-27 17:53:00,
2015-04-27 12:58:00,59.7,37.2,30.06,ESE,113,2.0,4.0,43,0.00,,,0.00,Wunderground v.1.13,2015-04-27 17:58:00,
2015-04-27 13:03:00,60.6,35.5,30.06,NE,38,4.0,4.0,39,0.00,,,0.00,Wunderground v.1.13,2015-04-27 18:03:00,
2015-04-27 13:08:00,60.4,37.2,30.06,NNE,23,3.0,5.0,42,0.00,,,0.00,Wunderground v.1.13,2015-04-27 18:08:00,
2015-04-27 13:18:00,61.2,37.9,30.05,West,267,4.0,4.0,42,0.00,,,0.00,Wunderground v.1.13,2015-04-27 18:18:00,
2015-04-27 13:28:00,61.5,38.8,30.04,NNW,342,4.0,5.0,43,0.00,,,0.00,Wunderground v.1.13,2015-04-27 18:28:00,
2015-04-27 13:38:00,60.7,36.8,30.03,NNE,23,5.0,6.0,41,0.00,,,0.00,Wunderground v.1.13,2015-04-27 18:38:00,
2015-04-27 13:43:00,60.8,38.1,30.04,WNW,293,2.0,5.0,43,0.00,,,0.00,Wunderground v.1.13,2015-04-27 18:43:00,
2015-04-27 13:48:00,61.6,38.9,30.04,NW,317,4.0,4.0,43,0.00,,,0.00,Wunderground v.1.13,2015-04-27 18:48:00,
2015-04-27 13:58:00,62.2,37.6,30.03,North,5,3.0,9.0,40,0.00,,,0.00,Wunderground v.1.13,2015-04-27 18:58:00,
2015-04-27 14:03:00,61.9,38.5,30.03,ENE,65,4.0,8.0,42,0.00,,,0.00,Wunderground v.1.13,2015-04-27 19:03:00,
2015-04-27 14:08:00,61.7,38.4,30.03,North,0,4.0,7.0,42,0.00,,,0.00,Wunderground v.1.13,2015-04-27 19:08:00,
2015-04-27 14:18:00,62.1,38.1,30.02,North,360,5.0,5.0,41,0.00,,,0.00,Wunderground v.1.13,2015-04-27 19:18:00,
2015-04-27 14:23:00,62.2,38.8,30.02,NE,45,3.0,6.0,42,0.00,,,0.00,Wunderground v.1.13,2015-04-27 19:23:00,
2015-04-27 14:28:00,62.3,39.5,30.02,NW,306,5.0,5.0,43,0.00,,,0.00,Wunderground v.1.13,2015-04-27 19:28:00,
2015-04-27 14:38:00,62.7,39.3,30.01,NE,47,4.0,4.0,42,0.00,,,0.00,Wunderground v.1.13,2015-04-27 19:38:00,
2015-04-27 14:48:00,62.8,38.7,30.02,ENE,68,4.0,10.0,41,0.00,,,0.00,Wunderground v.1.13,2015-04-27 19:48:00,
2015-04-27 14:58:00,62.7,38.6,30.01,ENE,74,5.0,5.0,41,0.00,,,0.00,Wunderground v.1.13,2015-04-27 19:58:00,
2015-04-27 15:03:00,62.9,38.2,30.02,NNE,15,4.0,4.0,40,0.00,,,0.00,Wunderground v.1.13,2015-04-27 20:03:00,
2015-04-27 15:08:00,63.1,39.6,30.02,North,0,6.0,11.0,42,0.00,,,0.00,Wunderground v.1.13,2015-04-27 20:08:00,
2015-04-27 15:18:00,63.3,39.2,30.01,ENE,60,3.0,8.0,41,0.00,,,0.00,Wunderground v.1.13,2015-04-27 20:18:00,
2015-04-27 15:28:00,63.7,39.5,30.00,NE,51,5.0,6.0,41,0.00,,,0.00,Wunderground v.1.13,2015-04-27 20:28:00,
2015-04-27 15:38:00,64.1,39.9,30.00,NE,45,2.0,4.0,41,0.00,,,0.00,Wunderground v.1.13,2015-04-27 20:38:00,
2015-04-27 15:48:00,64.0,39.2,30.01,ENE,71,4.0,4.0,40,0.00,,,0.00,Wunderground v.1.13,2015-04-27 20:48:00,
2015-04-27 15:58:00,63.5,38.7,30.00,NE,45,2.0,4.0,40,0.00,,,0.00,Wunderground v.1.13,2015-04-27 20:58:00,
2015-04-27 16:08:00,63.7,40.8,30.00,NNE,23,5.0,12.0,43,0.00,,,0.00,Wunderground v.1.13,2015-04-27 21:08:00,
2015-04-27 16:23:00,64.0,39.8,30.00,NE,48,3.0,9.0,41,0.00,,,0.00,Wunderground v.1.13,2015-04-27 21:23:00,
2015-04-27 16:33:00,63.4,39.9,30.00,NNE,23,3.0,7.0,42,0.00,,,0.00,Wunderground v.1.13,2015-04-27 21:33:00,
2015-04-27 16:38:00,63.6,40.1,29.99,NNE,15,3.0,3.0,42,0.00,,,0.00,Wunderground v.1.13,2015-04-27 21:38:00,
2015-04-27 16:48:00,63.9,39.7,29.99,NE,53,3.0,5.0,41,0.00,,,0.00,Wunderground v.1.13,2015-04-27 21:48:00,
2015-04-27 16:58:00,63.1,39.6,29.99,NNE,23,5.0,12.0,42,0.00,,,0.00,Wunderground v.1.13,2015-04-27 21:58:00,
2015-04-27 17:08:00,63.1,39.6,29.99,NE,45,6.0,8.0,42,0.00,,,0.00,Wunderground v.1.13,2015-04-27 22:08:00,
2015-04-27 17:18:00,63.9,41.0,29.99,NE,45,1.0,5.0,43,0.00,,,0.00,Wunderground v.1.13,2015-04-27 22:18:00,
2015-04-27 17:28:00,63.8,40.9,29.99,NE,50,4.0,4.0,43,0.00,,,0.00,Wunderground v.1.13,2015-04-27 22:28:00,
2015-04-27 17:33:00,63.7,39.5,29.99,NE,42,3.0,5.0,41,0.00,,,0.00,Wunderground v.1.13,2015-04-27 22:33:00,